Kezdőlap
METAR-TAF:

METAR-TAF

Repülőterek :

Johannesburg, Dél-afrikai Köztársaság

földrajzi szélesség: 26-09S, földrajzi hosszúság: 28-00E, magasság: 1626 m

Jelenlegi meteorológiai megfigyelések

A jelentés 7 órával és 34 perccel ezelõtt készült, 16:00 UTC
Szélcsend
Hőmérséklet 16°C
Páratartalom 59%
Légköri nyomás 1024 hPa

METAR: FAJB 201600Z AUTO 00000KT //// // ////// 16/08 Q1024

Idő: 01:34 (23:34 UTC)


TAF: hiányzik

Meteorológiai megfigyelések és előrejelzések több, mint 4000 repülőtéren (METAR és TAF jelentéseket).

A térképen piros és sárga pontok jelzik az elérhető meteorológiai állomásokat.

Mozgassa az egeret a pont fölött, hogy megjelenjen az állomás neve.

Azután kattintson az időjárási megfigyelések és előrejelzések megtekintéséhez.

A térkép megváltoztatása: kattintson a fekete keresztel jelölt zöld gombra ráközelítéshez, a vonallal jelölt zöld gombra távolításhoz, vagy a zöld nyilakra a szomszédos térképek eléréséhez.


METAR-TAF: